sat.trackr.live / text

‹ back to catalog

TOM-3

NORAD 69906 · 2026-156AP

PAYLOAD ACTIVE UNKNOWN

§ Identity

Operator
Country
GER
Launch date
2026-07-07
Launch site
AFWTR
Launch vehicle
Mass (kg)
RCS (m²)

External: N2YO · Heavens-Above · Gunter

§ Orbital elements

Epoch: 2026-09-19T23:16:19.246944Z

Period
96.58 min
Inclination
97.7388°
Eccentricity
0.0002780
Mean motion
14.90970835 rev/d
Perigee alt
593.0 km
Apogee alt
596.8 km
Semi-major
6,973.0 km
B*
6.6506e-5
RAAN
162.0260°
Arg perigee
226.9636°
Mean anomaly
133.1350°
Rev number
1,112

§ Raw data

TOM-31 69906U 26156AP  26262.96966721  .00000602  00000+0  66506-4 0  99982 69906  97.7388 162.0260 0002780 226.9636 133.1350 14.90970835 11129

JSON: /api/v1/satellites/69906 · /tle

For live sub-satellite position, see the globe view (requires WebGL).

§ Visibility from observer

Set your observer location to see the next 7 days of passes ≥ 10°. The values pass through the URL so the page stays shareable.

No JS? Fill the form by hand. The geolocation button needs JavaScript.